Flag for Canada Weather past 2 weeks in Selkirk, Manitoba, Canada

Now
65 °F

Mild.


Feels Like: 65 °F
Forecast: 54 / 80 °F
Wind: 5 mph from Southwest

Location: Winnipeg The Forks

Current Time: May 23, 2015 at 3:17:50 AM

Latest Report: May 23, 2015 at 2:00 AM


Visibility: N/A

Pressure: 30.06 "Hg

Humidity: 33%

Dew point: 35 °F

Location of SelkirkLocation

Historic Weather in Selkirk — Graph

°F

Selkirk temperature yesterday

Maximum temperature yesterday: 81 °F (at 4:00 PM)
Minimum temperature yesterday: 48 °F (at 6:00 AM)
Average temperature yesterday: 65 °F

Past Weeks' High & Low Weather Summary

 TemperatureHumidityPressure
High81 °F (May 22, 4:00 PM)100% (May 14, 12:00 PM)30.44 "Hg (May 14, 12:00 PM)
Low30 °F (May 9, 3:00 AM)14% (May 22, 5:00 PM)29.75 "Hg (May 17, 4:00 AM)
Average48 °F61%30.13 "Hg
* Reported May 8 2:00 AM — May 23 2:00 AM, Selkirk, Weather by CustomWeather, © 2015

Note: Actual official high and low records may vary slightly from our data, if they occured in-between our weather recording intervals... More about our weather records

Advertising

Selkirk weather history for previous 24 hours

 ConditionsComfort  
Time TempWeatherWind HumidityBarometerVisibility
2:00 AM
Sat, May 23
65 °FMild.5 mph33%30.06 "HgN/A
1:00 AM66 °FMild.5 mph33%30.05 "HgN/A
12:00 AM69 °FMild.5 mph30%30.05 "HgN/A
11:00 PM
Fri, May 22
71 °FMild.3 mph27%30.05 "HgN/A
10:00 PM72 °FMild.3 mph28%30.06 "HgN/A
9:00 PM74 °FMild.3 mph26%30.04 "HgN/A
8:00 PM76 °FMild.6 mph22%30.04 "HgN/A
7:00 PM78 °FPleasantly warm.7 mph20%30.04 "HgN/A
6:00 PM81 °FPleasantly warm.6 mph15%30.05 "HgN/A
5:00 PM81 °FPleasantly warm.6 mph14%30.04 "HgN/A
4:00 PM81 °FPleasantly warm.3 mph16%30.05 "HgN/A
3:00 PM80 °FPleasantly warm.5 mph18%30.06 "HgN/A
2:00 PM78 °FPleasantly warm.6 mph23%30.07 "HgN/A
1:00 PM76 °FMild.5 mph26%30.07 "HgN/A
12:00 PM74 °FMild.5 mph30%30.09 "HgN/A
11:00 AM68 °FMild.8 mph38%30.10 "HgN/A
10:00 AM63 °FMild.9 mph40%30.11 "HgN/A
9:00 AM59 °FRefreshingly cool.6 mph44%30.12 "HgN/A
8:00 AM55 °FRefreshingly cool.6 mph46%30.13 "HgN/A
7:00 AM50 °FCool.No wind62%30.13 "HgN/A
6:00 AM48 °FCool.2 mph62%30.12 "HgN/A
5:00 AM49 °FCool.1 mph57%30.12 "HgN/A
4:00 AM50 °FCool.2 mph57%30.12 "HgN/A
3:00 AM51 °FCool.3 mph62%30.11 "HgN/A
Weather by CustomWeather, © 2015

See weather overviewHow to use our weather pages